GFSGBSN_850_spd_102.txt.gz
Wind_Speed
8 8 7 7 8 9 11 13 14 14 14 13 12 12 14 14 12 11 10 8 7 5 5 5 5 5 4 7 14 5 6 9 12 17 17 16 16 15 12 4 13 6 3 6 6 19 25
8 8 7 7 7 8 9 11 12 13 13 12 11 12 12 13 14 12 10 8 7 6 4 4 5 5 3 13 2 6 3 6 13 17 17 16 14 15 7 12 4 4 3 9 7 13 24
9 8 7 7 7 7 8 10 11 12 13 12 11 11 11 12 12 11 9 8 7 6 5 5 4 5 8 18 4 5 7 7 13 16 16 16 16 12 10 9 16 5 6 3 6 15 8
10 9 8 7 7 7 8 9 10 12 13 13 12 12 11 10 10 9 8 7 5 5 6 4 2 4 9 4 13 7 10 10 12 14 15 13 15 16 18 4 4 3 9 8 2 4 11
9 9 8 7 7 8 8 9 10 11 12 14 13 12 10 9 9 8 8 8 6 4 4 4 1 4 13 8 9 11 12 13 13 14 14 10 14 16 19 16 5 9 6 10 8 14 9
8 9 9 8 7 8 8 8 9 10 12 13 12 12 11 9 8 7 9 9 9 5 5 7 7 9 12 12 7 11 12 12 14 13 12 10 11 14 16 13 10 7 7 13 11 10 14
7 8 9 8 8 8 8 9 10 11 11 12 12 12 11 8 7 7 10 9 6 3 9 11 4 10 5 4 3 9 12 13 15 14 15 19 13 15 18 19 14 9 3 4 8 17 12
8 8 10 9 8 9 10 11 11 11 12 12 13 13 11 7 6 6 9 8 10 11 15 17 8 12 8 2 9 13 13 15 16 14 18 15 17 18 19 10 17 16 16 6 7 14 10
11 10 11 9 8 9 10 11 12 12 13 13 12 12 10 6 5 7 7 11 10 11 13 7 3 10 10 10 14 16 16 19 14 15 17 19 15 19 19 17 11 11 16 8 2 12 19
12 12 13 11 9 9 10 12 13 13 14 14 12 11 9 4 5 9 12 3 7 11 5 8 9 5 5 10 14 14 16 17 9 14 18 17 20 17 18 14 10 13 19 16 14 12 9
15 15 14 13 11 10 10 12 13 14 14 14 12 10 8 7 8 9 5 7 10 6 4 1 6 3 4 11 4 15 15 19 18 15 13 16 16 19 12 18 10 15 22 21 23 11 9
16 16 15 14 13 12 11 12 14 15 15 15 13 10 8 6 11 5 8 10 8 5 3 5 3 8 7 14 10 14 14 19 15 14 15 17 16 17 16 9 11 21 11 16 12 5 7
17 16 16 14 14 13 13 13 15 16 15 15 13 11 9 13 8 5 9 10 5 5 5 6 1 4 11 11 11 9 12 16 13 11 14 16 20 9 7 11 14 15 15 4 2 4 5
18 17 16 14 13 14 14 15 15 16 16 14 12 11 10 12 9 10 9 10 6 7 7 2 5 6 8 10 9 10 11 14 16 18 13 12 14 12 14 15 14 13 18 4 1 6 2
20 18 16 15 14 14 15 16 15 16 16 14 11 7 11 8 8 5 10 7 6 10 11 9 12 12 8 8 2 6 13 14 16 18 18 10 14 14 18 12 18 12 14 14 12 3 7
21 20 16 14 15 15 15 15 16 16 15 13 10 8 13 8 9 7 9 12 9 6 9 13 14 4 6 14 9 9 12 12 14 18 16 16 11 16 14 11 15 15 11 13 6 5 6
21 20 18 14 16 16 15 14 14 16 12 10 10 9 12 8 8 11 9 6 5 6 7 8 15 16 12 9 14 16 4 7 20 3 11 14 11 19 14 11 14 11 12 10 15 13 5
22 20 18 16 14 15 14 13 13 15 10 6 8 10 11 9 11 15 9 8 3 7 5 7 6 9 10 9 6 12 8 5 12 8 10 15 11 6 11 12 13 16 15 15 9 15 11
21 20 19 17 14 14 13 11 12 13 12 11 8 20 8 12 10 6 13 3 2 7 11 8 11 9 11 3 1 8 6 6 6 10 6 9 9 8 14 10 13 14 17 16 14 13 14
22 20 19 18 16 13 13 10 11 11 10 11 7 5 9 14 18 15 12 8 2 9 6 4 11 13 7 3 4 3 4 8 7 9 10 5 13 16 11 8 14 15 19 13 14 12 12
21 22 18 18 16 13 13 10 9 10 9 9 8 5 8 8 14 13 2 8 2 6 3 5 6 7 14 3 5 16 4 11 5 1 11 8 14 16 17 7 16 19 16 16 17 18 11
21 21 20 18 16 13 12 10 8 9 8 11 9 13 16 9 2 4 6 9 6 4 1 9 2 11 6 11 11 12 6 22 3 6 9 9 9 12 16 10 17 19 21 17 22 15 13
20 19 20 18 15 14 11 9 8 8 6 6 9 11 15 10 6 9 5 5 3 4 2 8 8 8 10 12 6 5 10 8 10 7 9 3 6 7 11 17 14 15 15 15 12 11 10
18 19 19 18 16 13 11 9 7 7 7 7 7 14 11 11 7 8 3 6 2 5 8 5 2 6 7 9 7 12 3 3 4 6 8 5 3 2 6 10 8 10 13 8 16 6 20
19 19 18 17 16 14 13 11 8 7 7 9 5 6 13 11 19 9 2 3 5 5 10 5 3 6 7 7 7 8 6 4 8 4 10 10 5 2 3 3 9 6 11 13 7 13 18
18 19 18 18 17 15 14 13 10 8 8 8 7 5 8 12 9 6 4 3 7 7 8 5 2 5 8 9 5 3 2 3 5 4 10 8 11 2 4 2 4 6 13 31 5 6 15
18 18 19 19 19 16 14 14 12 9 8 8 10 6 6 12 22 5 4 5 7 8 4 7 4 4 8 8 6 4 3 5 4 12 2 10 12 5 2 4 5 4 9 24 8 3 6
18 18 19 20 19 16 15 13 14 11 9 9 8 6 6 9 21 8 5 3 2 7 5 8 5 5 7 8 4 4 3 13 10 6 2 2 3 4 6 9 6 7 12 2 6 2 10
18 19 20 19 16 14 14 13 14 12 10 9 6 2 7 9 9 10 6 6 6 5 10 1 2 10 8 4 2 1 3 4 2 3 3 4 6 4 7 3 8 9 9 8 8 5 7

GFSGBSN_850_spd_105.txt.gz
Wind_Speed
9 8 8 8 8 9 11 12 14 15 15 14 13 13 13 13 14 12 10 9 7 6 6 6 6 6 6 4 12 9 9 5 9 15 17 14 15 18 8 7 5 7 8 18 22 30 22
9 9 8 8 8 8 9 11 12 13 14 14 14 14 13 13 12 11 10 9 8 6 6 6 6 6 4 6 1 5 7 5 8 15 18 16 14 16 13 8 9 1 9 16 19 12 17
10 9 8 7 7 8 8 9 11 12 14 14 14 14 12 12 11 10 9 9 8 7 7 6 5 5 8 18 2 6 9 9 8 14 14 12 15 19 13 8 4 8 6 9 12 8 5
9 9 9 8 8 9 9 9 10 11 12 13 13 13 13 11 10 10 9 9 7 6 7 7 5 6 8 2 7 9 12 7 4 11 12 16 13 17 18 11 3 1 1 4 7 5 10
8 9 9 9 9 9 10 10 11 12 13 13 14 14 13 11 9 8 10 10 8 7 7 7 4 7 11 6 13 14 12 13 12 11 12 14 18 17 17 6 6 2 2 4 7 5 7
8 9 11 10 9 9 10 11 12 12 13 13 14 14 14 11 8 7 10 13 10 8 7 9 6 10 7 5 10 4 10 15 17 14 18 19 4 2 5 3 5 6 4 2 8 8 16
11 11 13 12 10 10 11 12 12 12 13 13 14 14 14 12 7 7 9 14 9 1 8 10 13 15 17 2 0 2 9 10 13 13 6 8 3 7 12 15 16 8 9 9 10 9 7
14 14 15 14 12 11 12 12 12 13 13 14 14 14 13 11 6 7 9 10 12 13 12 21 18 20 15 10 5 8 11 11 9 8 9 5 8 13 16 4 13 10 5 7 12 10 7
15 15 15 14 13 12 13 13 14 14 15 14 14 14 13 11 5 5 9 10 8 13 9 16 18 12 11 10 15 12 13 15 7 8 8 9 13 18 17 10 8 8 4 8 7 8 1
16 16 16 14 13 12 13 14 15 16 15 15 14 12 12 9 6 8 14 12 11 12 3 6 7 5 4 5 9 15 18 18 9 10 12 8 20 15 15 10 5 5 9 11 13 9 3
17 17 16 16 14 13 13 14 15 16 17 16 15 13 10 10 11 9 12 10 12 11 4 3 5 1 4 6 10 15 17 14 12 12 4 10 11 12 12 11 14 6 17 7 8 8 6
19 18 17 17 16 15 14 14 15 17 18 17 16 13 10 10 12 4 15 16 15 2 4 6 8 8 7 13 18 16 14 12 17 12 14 10 18 8 7 1 21 25 18 11 4 2 3
22 20 17 16 16 16 16 16 17 18 19 18 16 14 12 13 9 7 8 13 3 4 5 5 2 9 9 7 9 9 8 7 5 3 6 10 10 9 13 14 22 20 12 4 1 2 4
23 22 20 17 15 16 17 17 17 18 18 18 16 14 12 13 6 5 8 5 3 9 10 9 6 7 3 4 6 11 7 5 10 10 8 6 7 8 3 4 16 17 12 6 6 4 2
23 22 22 19 16 16 17 18 19 17 18 18 14 11 11 7 6 5 5 3 4 12 10 10 12 5 4 11 11 1 4 8 9 11 8 4 4 5 8 9 7 7 4 10 7 1 4
23 23 22 21 17 19 17 17 19 17 17 19 14 10 14 7 10 5 3 8 10 2 10 7 9 9 4 8 5 10 6 2 3 6 13 10 6 6 7 12 9 6 5 3 2 4 3
22 22 22 20 18 17 17 17 17 17 15 15 11 5 5 10 15 14 5 9 11 4 6 3 9 8 4 3 0 4 8 9 14 12 9 5 1 10 9 6 7 3 3 5 5 5 5
22 22 22 21 18 17 17 17 17 16 14 9 4 4 10 14 9 10 8 14 6 11 6 5 6 8 6 4 3 4 4 7 25 17 7 7 2 5 8 3 10 6 7 7 4 4 4
21 21 21 20 19 17 14 15 15 16 16 13 6 12 11 10 5 7 7 13 9 3 6 4 6 9 10 5 4 6 3 10 19 12 4 7 4 5 8 7 2 6 8 6 4 1 5
21 21 20 19 19 17 14 14 13 13 13 12 4 3 10 15 19 10 11 11 9 7 3 4 3 10 8 5 9 6 10 9 24 16 4 2 2 4 1 5 9 7 7 9 3 3 5
21 20 20 19 18 18 14 12 12 11 13 8 4 7 17 3 7 12 14 5 7 3 4 4 2 6 6 4 6 2 2 8 15 6 3 2 4 6 6 10 8 13 13 8 8 8 2
21 21 20 18 17 17 14 11 11 10 12 9 6 7 14 21 21 6 6 2 7 4 4 7 7 12 9 6 5 8 5 5 7 9 8 5 4 3 6 13 13 6 10 13 11 10 12
21 21 20 19 17 16 13 11 10 9 9 3 6 9 4 14 10 2 5 2 4 7 5 3 5 5 6 5 10 19 26 12 5 6 4 3 3 5 1 11 11 6 12 16 7 23 2
20 21 20 19 17 16 13 10 10 9 8 7 7 11 6 5 8 10 16 9 11 9 3 12 5 4 10 11 12 10 14 12 13 1 7 2 4 2 2 7 2 4 9 12 11 17 19
20 21 20 19 17 16 15 11 10 10 11 9 6 2 6 5 12 14 24 7 16 7 2 9 7 8 9 9 3 3 5 7 10 12 6 3 4 2 3 1 5 4 7 9 9 6 16
18 19 20 19 18 17 16 13 12 11 10 11 6 4 6 8 5 16 25 10 3 4 5 6 5 4 5 3 2 3 3 2 4 9 7 11 7 4 3 4 2 6 11 17 16 5 12
16 18 19 19 19 18 17 15 12 14 11 10 7 4 4 6 21 16 16 2 7 3 3 7 6 3 3 2 2 4 2 1 3 2 4 0 3 4 4 2 4 7 11 18 4 3 7
18 18 19 19 20 19 16 15 12 14 12 11 7 9 6 5 24 18 18 18 7 5 2 6 1 4 2 0 3 4 3 6 2 4 2 4 3 3 4 2 2 4 10 3 5 8 9
18 18 19 19 20 18 14 14 13 14 13 11 8 7 10 13 17 13 11 12 2 6 5 2 3 3 2 3 1 0 3 4 6 3 7 1 3 1 6 6 12 7 5 2 12 14 11

GFSGBSN_850_spd_108.txt.gz
Wind_Speed
9 8 8 8 8 9 11 12 13 14 15 15 14 14 13 12 12 12 11 10 9 8 7 6 6 7 7 5 7 3 6 3 6 11 11 14 13 8 4 9 9 6 13 14 8 11 10
10 9 9 8 8 9 10 11 12 14 15 16 15 15 14 12 11 10 10 9 9 8 8 7 7 6 5 4 2 1 5 4 4 10 13 19 10 2 11 11 8 10 12 11 8 6 7
10 10 9 9 9 9 9 10 11 12 13 14 15 14 14 12 10 9 9 9 8 8 9 9 8 7 10 11 2 2 4 7 10 11 15 21 15 12 9 9 7 12 7 12 9 10 4
9 10 11 10 10 10 10 10 11 11 12 13 14 14 14 13 10 9 10 10 9 9 9 8 8 10 7 2 4 11 7 7 7 7 11 14 10 17 13 9 5 1 3 5 8 11 8
11 12 13 12 11 11 11 12 12 12 12 13 14 14 14 13 10 9 10 11 13 10 9 8 8 9 7 3 7 3 14 11 7 3 9 7 9 12 12 2 5 1 3 3 9 8 3
13 13 14 13 11 11 11 12 13 13 13 13 14 14 14 14 10 8 10 14 11 8 9 8 6 8 3 11 1 4 13 14 10 8 12 12 7 1 4 4 5 3 2 10 7 6 5
16 16 16 14 12 11 11 12 13 14 14 14 14 14 14 14 10 8 7 11 10 3 14 12 16 16 23 6 1 1 6 9 13 10 4 8 4 4 8 7 0 4 7 10 4 3 6
17 17 17 16 14 12 12 12 13 14 14 15 14 14 13 13 8 5 7 8 6 8 11 19 19 21 18 11 9 7 8 5 2 5 2 4 5 11 8 4 7 11 14 5 3 2 0
18 17 17 16 15 14 14 13 14 14 15 15 15 14 13 11 6 6 7 8 14 20 6 16 10 11 18 11 12 15 9 8 1 3 3 7 12 9 6 4 8 6 8 8 5 6 2
20 19 18 17 15 14 14 15 15 15 16 16 16 15 13 10 4 5 6 15 19 15 4 7 3 4 6 7 4 8 12 10 1 9 7 7 15 10 8 10 6 3 9 15 11 2 1
22 21 19 17 16 15 15 14 15 17 18 18 17 15 11 10 8 10 13 14 11 1 4 4 3 6 6 7 2 5 13 16 8 6 3 10 6 5 8 11 8 6 8 17 8 2 3
23 22 21 19 16 16 16 16 16 18 18 18 18 16 11 11 8 5 12 14 10 5 3 4 5 5 3 9 4 4 21 11 5 2 4 10 18 8 8 2 12 21 16 10 7 1 1
23 24 23 22 18 16 17 18 18 19 18 18 17 16 13 11 5 6 13 12 5 3 7 7 2 4 5 4 1 8 7 4 3 1 3 7 6 5 25 20 8 3 6 4 2 1 4
23 24 24 22 20 16 18 20 20 19 19 19 16 14 12 8 6 7 10 5 3 5 6 6 6 4 3 4 3 6 5 4 5 4 1 2 8 4 8 11 12 13 6 5 7 4 2
22 23 24 24 21 19 18 19 19 19 19 20 16 10 10 9 9 4 2 3 5 2 4 5 8 7 7 5 3 6 5 3 6 7 5 2 6 7 4 8 13 7 5 5 6 3 3
23 22 23 23 22 20 19 19 19 18 17 19 15 9 6 15 10 5 4 4 3 4 2 6 3 2 3 4 4 4 5 3 8 5 4 6 4 5 7 6 12 13 8 3 2 5 3
22 22 22 22 22 20 19 19 19 18 16 15 9 6 14 14 10 3 2 6 6 14 2 3 3 4 5 2 3 4 5 4 11 9 9 5 4 8 2 1 8 2 4 4 5 5 5
22 21 20 21 21 20 19 17 19 18 16 12 4 2 10 15 5 4 3 5 3 11 3 4 4 4 3 5 5 4 4 2 15 14 6 3 3 2 8 7 8 7 8 6 5 3 2
21 22 20 20 20 19 19 16 16 17 17 15 10 6 6 6 4 4 8 8 10 7 3 3 2 2 3 2 4 2 3 6 9 5 4 5 3 4 10 7 8 6 5 1 4 3 5
23 21 20 20 20 19 19 15 14 13 13 14 5 3 4 7 14 8 5 7 6 9 4 5 4 0 4 3 6 3 2 4 9 6 8 0 3 4 3 6 5 5 12 9 3 3 2
23 21 20 21 20 17 18 16 12 11 11 9 2 4 3 3 4 6 2 4 9 4 4 7 4 5 2 3 3 3 2 5 5 4 5 3 2 3 2 4 5 10 15 15 6 4 5
24 21 19 19 18 17 16 16 12 9 8 6 3 4 6 9 11 6 4 9 9 3 4 1 6 5 8 6 6 6 5 4 5 5 5 4 2 3 5 7 8 5 19 14 10 13 4
21 19 18 18 18 17 15 15 13 9 6 3 3 7 5 6 5 4 2 7 8 10 4 9 9 5 5 3 7 8 12 6 3 1 2 3 3 3 1 5 4 7 10 11 1 11 6
22 21 18 18 17 16 15 14 13 11 7 5 5 8 3 4 1 3 10 5 10 5 6 7 7 5 3 2 7 4 7 2 8 5 3 1 3 3 1 5 4 5 4 0 6 10 11
19 19 18 18 17 16 15 14 14 13 11 9 6 5 3 4 3 8 15 2 9 9 4 5 7 5 1 2 4 5 5 4 6 5 8 4 4 4 3 1 1 3 3 2 4 5 8
15 16 17 17 17 16 16 14 14 14 14 12 7 9 6 4 4 7 9 11 1 3 1 5 8 5 3 4 4 3 1 1 4 8 5 5 8 4 2 4 5 6 4 7 1 2 3
16 17 17 17 17 17 16 16 14 15 15 13 6 8 5 6 8 6 3 6 10 1 3 4 5 3 3 3 3 3 2 0 2 1 3 4 4 4 1 1 4 5 4 12 4 3 11
16 16 17 17 17 17 18 16 14 14 15 14 7 11 9 6 21 21 17 11 15 4 4 5 4 3 4 4 3 2 3 5 2 4 5 3 4 3 2 1 1 10 3 6 3 7 18
16 17 17 17 16 16 18 15 13 14 14 15 9 13 7 14 11 12 14 15 13 6 3 3 4 3 4 4 1 3 3 2 4 3 1 1 6 7 8 5 5 5 9 15 16 18 13

GFSGBSN_850_spd_111.txt.gz
Wind_Speed
10 9 9 9 9 9 10 11 12 13 14 14 14 14 13 13 12 12 12 11 10 9 8 7 7 7 7 3 3 2 3 3 9 12 13 11 12 6 2 2 7 3 6 9 4 6 5
11 11 10 10 10 10 11 12 12 13 14 14 14 14 14 13 11 11 11 10 10 9 10 10 9 8 6 3 4 4 5 4 0 9 14 15 9 7 6 6 8 6 10 7 4 6 3
10 12 11 11 10 10 10 11 12 12 13 14 15 15 15 13 10 10 10 10 11 11 10 9 9 8 9 5 5 4 2 2 5 6 12 15 13 4 6 7 8 17 7 4 1 2 4
12 13 13 11 10 9 10 10 10 11 12 13 14 14 14 14 11 10 10 11 13 12 9 9 10 11 5 6 6 7 7 4 4 2 9 4 11 6 5 7 6 5 4 2 3 3 1
15 15 15 13 12 11 11 11 11 11 12 12 13 14 14 14 11 8 10 13 13 10 9 10 9 8 1 1 9 5 13 9 6 1 3 5 2 5 3 1 4 6 2 3 3 9 3
16 17 16 14 13 12 12 12 12 13 13 13 13 13 13 14 12 7 9 12 10 8 6 8 5 5 1 10 4 2 6 9 4 4 3 3 4 2 3 4 3 2 4 7 3 4 3
18 18 17 16 14 12 12 12 13 14 15 15 15 14 13 13 10 4 5 11 12 4 22 10 15 14 16 4 3 2 5 9 9 3 2 1 3 5 8 4 4 5 5 10 3 3 3
20 18 17 16 15 13 12 12 12 13 14 15 16 15 13 12 8 4 6 11 8 11 11 15 8 15 15 13 5 4 5 6 5 5 4 4 5 7 2 3 2 9 9 4 4 3 1
22 20 18 17 16 15 14 14 14 14 14 15 15 15 12 10 6 3 5 9 14 17 3 11 5 7 6 6 7 9 4 4 2 3 4 6 6 4 4 2 4 2 6 7 6 6 3
22 21 20 18 17 15 15 15 15 16 16 17 16 16 12 8 3 3 3 13 18 7 4 6 2 2 2 6 2 7 7 5 1 6 3 4 7 6 5 5 6 5 6 8 14 6 2
22 23 22 21 19 16 15 15 16 17 18 17 16 16 12 7 6 6 7 13 13 2 3 2 2 2 3 4 1 7 11 11 5 4 4 7 4 4 6 9 7 4 12 11 5 4 5
21 21 22 22 21 19 16 17 18 18 18 17 16 16 12 8 8 5 7 10 3 5 2 4 2 1 2 1 3 2 7 8 3 4 2 8 9 5 6 1 13 17 9 6 0 2 2
21 21 22 23 21 20 19 20 19 18 18 18 16 15 14 9 8 5 8 7 4 3 4 5 4 1 3 3 3 4 5 5 3 2 3 5 1 3 10 12 5 6 5 2 1 2 3
21 22 22 23 22 21 20 20 20 19 18 19 16 15 12 7 11 7 7 4 3 3 5 4 3 2 3 3 3 3 4 4 1 2 1 1 3 7 5 6 10 7 6 5 6 4 3
21 22 22 22 23 23 22 21 19 20 19 18 16 11 7 9 12 6 0 3 5 4 4 2 4 6 4 4 2 4 3 1 1 1 1 2 5 4 4 5 10 6 4 4 7 3 3
21 22 22 22 23 23 23 21 20 19 19 17 15 8 5 14 10 5 4 4 4 5 3 2 3 2 4 4 4 4 5 2 3 0 2 2 4 4 2 5 2 7 6 2 2 5 3
22 21 22 22 22 23 23 23 21 19 17 15 11 5 12 15 9 1 3 6 5 10 6 3 4 2 1 2 2 2 1 2 3 5 6 1 4 7 3 4 7 1 2 5 5 4 5
21 21 22 22 21 22 22 22 21 20 17 13 4 2 7 16 3 1 2 5 3 4 11 2 4 3 1 3 3 1 2 3 2 4 1 1 3 4 8 2 5 2 0 4 5 4 2
21 22 22 20 20 20 21 20 19 18 17 17 11 2 3 18 3 3 5 4 5 4 4 2 2 2 3 3 2 3 3 1 3 4 3 1 3 4 8 6 7 5 5 1 3 4 5
22 22 21 18 18 19 19 18 17 14 13 13 5 2 3 16 8 5 2 5 4 9 6 5 4 4 4 2 3 3 3 4 9 3 7 2 3 4 5 4 1 4 7 4 5 4 3
21 22 21 17 16 17 18 17 15 12 10 9 2 3 2 2 1 1 3 3 10 4 2 5 4 2 6 3 1 3 2 5 4 3 2 3 2 1 4 1 6 0 5 9 6 3 5
20 21 18 14 15 17 17 16 14 10 8 6 2 4 5 5 8 3 2 4 6 4 6 1 6 3 6 7 8 6 5 4 2 6 6 6 5 3 2 2 8 3 10 6 6 6 5
20 19 19 16 14 15 16 15 14 10 6 3 2 3 3 4 3 0 3 3 7 10 2 11 11 6 5 4 10 4 8 7 3 2 2 2 2 3 4 6 8 4 5 6 1 5 4
19 18 18 16 14 14 15 15 14 10 7 7 6 4 1 4 2 3 4 10 5 4 8 8 13 6 6 3 3 6 5 3 11 7 1 3 4 3 2 4 5 4 2 4 2 2 6
16 15 15 15 14 14 14 14 14 12 9 9 7 4 2 3 5 7 7 6 3 6 5 6 4 6 9 4 4 4 5 4 4 4 7 2 4 3 3 1 5 3 3 1 2 3 3
16 16 16 15 15 15 14 14 14 13 11 11 8 9 5 2 6 4 5 5 0 2 2 3 8 4 4 4 4 2 2 2 3 6 2 3 7 4 2 3 6 5 1 3 5 3 2
16 16 16 16 16 15 15 15 14 14 12 12 9 9 8 5 10 3 1 3 4 2 2 2 4 3 2 3 3 2 2 0 1 1 1 3 3 3 2 2 6 6 7 2 3 5 9
15 15 16 16 16 16 14 16 15 12 12 13 9 13 14 5 20 16 17 11 7 1 3 6 4 2 4 4 3 3 3 4 2 3 3 4 4 3 2 1 3 1 1 4 5 7 17
15 16 17 17 16 15 15 15 13 9 10 12 9 11 10 14 11 9 15 19 22 18 8 4 4 6 6 4 2 3 2 2 4 2 2 2 6 4 6 5 6 4 3 3 12 14 14

GFSGBSN_850_spd_114.txt.gz
Wind_Speed
11 10 9 9 8 9 9 9 10 11 12 13 13 13 13 13 12 11 11 11 11 10 10 10 8 7 6 2 1 1 3 5 11 12 11 11 11 5 1 2 3 3 3 8 12 18 7
12 12 11 10 9 9 10 10 10 10 11 12 13 13 13 13 11 11 11 11 11 10 10 10 10 7 5 1 4 4 7 5 4 10 10 10 6 5 2 2 2 3 7 9 5 7 1
14 15 14 11 11 10 11 11 11 11 12 12 12 13 13 12 11 9 9 10 11 12 10 10 10 10 4 1 5 5 4 2 2 2 7 11 7 5 2 4 6 16 4 9 9 3 3
15 15 14 12 10 10 10 11 11 12 12 13 13 13 14 13 11 8 9 11 13 12 9 9 12 9 1 8 5 6 5 4 1 1 5 3 10 4 2 4 3 3 4 3 6 6 1
16 16 15 14 12 11 10 10 11 11 12 12 13 13 14 14 12 7 9 12 14 10 7 9 7 5 2 1 5 7 10 5 2 4 14 9 7 1 1 3 4 6 3 5 4 6 2
17 16 16 15 13 12 11 11 12 12 13 13 13 13 13 13 11 6 9 14 11 6 3 7 3 2 2 6 7 2 5 8 1 4 6 5 3 2 4 4 3 2 4 3 4 3 7
20 18 17 16 15 14 13 12 12 13 14 14 14 14 13 12 9 5 9 8 8 3 12 5 8 7 9 2 5 1 7 9 5 2 3 2 4 4 2 5 4 4 3 5 3 5 4
21 21 20 18 16 14 14 13 14 14 14 14 15 15 13 11 8 4 8 6 8 10 9 8 5 11 8 5 2 3 7 5 4 3 4 5 1 4 4 3 2 5 7 2 1 4 2
21 21 21 20 19 16 15 14 14 15 15 15 15 15 12 10 5 1 5 8 14 14 2 6 4 6 2 5 5 4 9 5 2 2 3 5 3 5 3 2 4 4 5 5 3 5 3
20 21 22 21 20 19 16 16 16 16 16 16 15 14 12 8 1 1 2 10 17 5 5 6 3 1 2 2 2 6 7 5 3 4 5 2 3 3 3 4 5 3 7 9 10 5 2
21 21 21 22 22 21 19 17 18 18 17 15 15 14 11 5 6 2 3 10 9 3 4 2 2 1 2 3 1 3 9 7 5 3 6 6 2 3 4 7 8 5 11 6 2 3 2
21 21 21 22 22 22 21 20 19 19 18 16 14 15 12 9 8 5 3 9 2 5 1 5 1 1 2 1 2 2 4 4 1 3 1 6 3 5 6 2 9 11 7 7 5 3 2
21 22 22 22 22 23 23 22 21 20 19 17 14 14 14 9 5 6 4 4 5 3 3 5 2 1 1 3 2 2 4 2 3 3 3 4 3 1 6 8 6 5 7 3 2 0 5
21 22 22 23 23 23 24 23 22 20 20 18 15 13 13 7 9 6 2 4 2 2 4 4 3 2 3 5 4 3 3 2 1 4 1 1 5 8 4 5 7 4 6 6 6 4 2
22 23 23 23 24 24 24 24 23 21 20 19 14 12 7 6 12 7 3 3 6 4 3 3 3 6 5 4 2 4 4 2 2 4 6 1 5 1 5 5 10 6 5 5 5 2 1
23 23 22 23 23 24 24 24 24 21 19 19 15 7 3 9 12 10 4 5 4 4 3 2 3 2 2 5 4 4 0 1 2 2 3 2 3 3 2 5 1 5 7 2 2 4 4
24 22 22 22 22 23 23 23 24 22 18 16 10 1 5 14 13 4 3 6 5 7 3 4 3 3 0 3 2 1 1 2 1 3 2 3 2 6 1 2 7 2 2 1 4 4 5
25 25 22 23 22 21 21 22 23 22 17 13 4 2 10 17 4 1 3 5 2 3 1 2 4 2 3 2 2 3 3 4 1 1 1 0 4 3 6 7 2 4 6 6 4 4 2
23 22 23 22 20 18 18 19 20 20 18 16 10 0 6 14 3 2 4 3 4 2 3 4 4 3 2 4 1 1 2 2 2 3 3 3 1 3 5 4 4 4 3 2 3 3 5
21 20 21 21 18 16 16 16 17 17 14 13 5 1 2 10 1 5 3 4 3 3 4 4 5 4 3 2 1 2 2 3 5 3 9 3 2 5 4 6 1 5 5 3 4 3 4
19 20 20 19 16 15 16 15 14 13 11 10 2 2 0 2 2 3 4 2 3 3 2 3 1 4 7 4 1 3 2 4 2 5 2 4 5 4 5 3 6 8 4 7 1 3 4
18 20 18 19 19 15 14 14 13 11 8 5 3 3 3 4 3 3 5 5 4 3 6 4 5 4 5 6 8 8 5 3 2 3 3 3 1 2 1 3 4 1 8 3 4 4 1
16 17 17 17 18 14 15 13 12 10 7 2 2 4 4 3 2 2 4 3 3 5 6 11 11 6 5 6 8 3 5 4 2 1 1 2 3 2 5 6 4 4 0 3 1 4 3
16 17 16 14 15 14 14 14 12 10 7 6 5 3 1 4 1 4 1 2 8 7 6 7 16 6 6 8 11 10 8 5 5 8 1 4 3 2 2 0 4 4 1 5 2 2 4
16 16 16 15 14 14 15 13 12 10 9 8 7 4 3 3 4 8 6 4 8 1 1 8 9 5 15 7 4 4 4 2 2 5 3 2 4 3 3 3 3 4 6 5 4 5 3
16 16 15 15 15 15 14 13 13 11 11 10 9 9 5 1 5 5 4 4 1 2 3 4 8 10 7 5 4 3 3 1 2 1 2 5 6 4 3 2 4 4 2 8 7 5 4
17 17 15 15 16 15 15 14 12 12 11 11 9 9 9 5 10 2 3 1 3 2 1 0 6 3 4 3 3 3 3 1 2 3 4 1 3 4 1 2 6 5 1 8 3 6 10
17 16 15 15 16 16 14 14 13 11 9 11 8 12 14 5 18 14 8 8 10 1 3 2 4 1 3 4 3 3 3 4 1 4 3 4 4 2 2 1 3 1 2 5 3 3 10
16 16 16 16 17 16 15 14 13 9 9 10 9 12 13 17 10 10 14 16 16 13 10 4 3 7 7 5 1 3 2 2 2 2 0 1 5 4 6 5 5 7 7 6 6 9 8

GFSGBSN_850_spd_117.txt.gz
Wind_Speed
14 13 11 10 9 9 9 9 9 10 10 11 12 12 12 12 11 10 10 10 10 10 9 9 9 7 4 1 3 3 4 9 12 9 10 10 9 4 3 1 2 2 8 4 7 13 19
14 14 12 10 9 9 9 9 9 10 10 11 11 12 12 12 11 10 9 9 10 10 10 9 8 7 3 2 5 8 10 8 6 6 7 9 7 5 3 1 1 3 11 10 5 8 8
16 15 14 12 10 10 10 10 10 10 11 11 11 11 11 11 11 10 10 10 11 12 10 9 9 7 1 2 6 7 8 7 5 4 6 9 9 4 1 1 3 12 8 8 4 7 4
16 16 15 13 12 11 10 10 11 11 11 11 11 11 11 11 10 8 9 11 13 12 8 9 9 4 2 7 5 3 3 3 4 4 9 9 10 3 0 1 3 2 2 3 4 5 3
17 15 15 14 13 12 11 11 11 11 12 12 13 12 12 12 11 8 9 12 12 8 5 8 4 4 4 2 2 4 7 4 6 7 10 10 10 2 2 1 3 3 2 3 3 3 5
20 19 17 15 14 13 12 12 12 12 12 12 13 13 13 11 10 7 9 12 9 3 3 4 3 3 3 2 4 1 3 9 5 10 6 4 3 3 3 3 5 3 2 2 3 2 2
20 20 20 18 16 14 13 13 12 12 12 13 13 13 13 11 8 4 9 7 6 2 6 2 4 3 5 3 3 3 8 12 7 3 3 1 5 8 4 3 4 3 3 3 4 3 1
20 21 21 21 20 17 15 14 14 13 13 14 14 13 13 11 6 3 6 6 8 8 7 3 3 6 6 3 3 4 11 5 3 3 4 4 6 5 4 6 6 5 5 3 3 4 4
20 20 20 20 21 20 18 16 14 15 14 14 14 13 11 9 2 3 3 7 13 12 3 3 3 3 1 6 2 6 13 5 3 4 4 5 3 7 5 5 6 5 8 6 1 6 0
20 21 20 20 21 21 20 18 17 16 16 15 14 12 10 8 2 2 2 8 13 5 2 2 1 2 3 4 2 7 10 4 2 4 7 2 3 4 5 5 7 6 9 5 9 8 1
20 21 21 21 21 21 21 21 19 18 16 15 14 12 9 5 4 3 2 8 7 3 2 2 1 1 4 3 6 5 9 5 5 4 4 4 5 4 3 4 10 2 7 9 7 3 2
20 21 21 22 22 21 21 22 21 19 17 15 14 13 10 7 6 6 3 6 2 2 1 1 1 1 2 1 1 4 4 3 2 3 1 4 2 3 1 4 8 14 10 9 6 2 4
21 22 22 22 22 22 22 22 22 21 19 16 14 13 12 7 4 10 4 1 2 2 2 1 1 2 1 2 3 2 6 6 2 3 0 2 4 3 5 8 10 4 7 2 5 4 5
22 22 23 23 23 23 22 22 23 23 21 18 15 13 11 8 10 11 4 2 3 1 2 1 2 2 2 4 2 2 5 5 4 2 2 3 4 10 9 4 6 12 7 5 7 4 1
23 23 23 23 23 24 23 22 22 23 22 20 15 12 7 8 14 12 5 3 4 4 1 1 2 3 2 2 1 2 2 2 1 5 4 3 4 2 8 5 6 6 8 2 1 1 4
26 25 24 24 24 24 23 22 21 22 22 19 15 7 4 11 17 12 2 3 3 3 1 2 3 2 1 0 2 2 1 1 0 1 3 2 4 1 4 5 5 5 8 4 2 4 5
27 27 24 24 24 22 21 21 21 20 20 17 11 0 3 14 19 6 4 4 4 7 5 5 4 3 2 1 1 2 2 1 2 1 3 0 3 2 3 7 9 6 5 3 2 2 4
28 24 21 23 23 21 18 19 19 20 18 13 4 2 9 20 4 0 3 4 2 3 4 4 3 2 3 2 1 2 2 2 1 1 2 1 3 5 5 2 6 5 6 12 9 10 3
23 19 21 23 22 20 16 17 17 17 17 15 9 0 10 9 5 3 2 2 4 3 3 5 5 2 2 4 2 4 2 2 1 1 1 3 2 6 4 4 2 2 4 3 5 2 10
20 19 21 19 21 20 16 15 15 15 14 12 3 2 2 8 2 3 4 3 3 4 4 3 3 4 4 3 0 3 4 1 2 1 3 5 3 6 9 2 1 1 7 7 4 8 10
20 20 19 17 19 19 16 14 14 13 11 9 2 0 1 3 6 5 3 1 3 2 3 6 2 6 6 5 3 4 3 1 1 1 3 3 6 4 4 1 6 3 8 7 1 4 6
18 17 17 17 19 19 14 13 12 11 10 5 2 3 3 3 2 6 6 6 11 7 5 5 6 11 9 6 8 6 6 3 2 2 2 1 2 3 4 7 5 5 5 5 3 4 8
15 15 15 16 16 16 15 11 11 10 8 2 2 3 2 2 2 3 5 5 7 3 8 9 11 7 8 7 8 3 4 5 1 2 2 2 3 4 6 5 2 6 9 7 1 5 4
14 14 15 15 15 15 14 12 10 10 7 5 4 3 1 3 3 4 1 1 5 8 5 3 11 7 6 14 15 11 8 5 2 4 1 3 3 0 1 6 11 4 3 8 7 5 6
15 15 16 15 15 15 13 12 11 9 9 7 5 3 2 3 4 8 8 6 8 7 9 5 5 6 22 9 3 2 1 2 2 3 1 2 2 3 3 7 2 6 7 7 9 5 6
16 15 15 14 14 13 13 12 11 11 10 8 7 9 4 3 4 5 3 3 2 1 2 4 8 21 10 3 2 4 3 1 3 2 2 4 2 4 3 3 4 0 3 2 5 4 9
17 15 14 13 13 14 14 12 11 10 9 9 8 6 8 4 9 3 4 2 1 1 1 4 8 5 5 3 2 3 2 1 3 3 3 2 1 5 3 4 4 4 0 2 3 1 4
16 14 14 14 14 15 15 12 11 10 7 9 9 7 13 6 20 13 7 5 3 2 2 2 4 1 3 3 3 3 3 4 3 2 2 4 3 3 2 3 5 3 2 4 2 4 2
17 12 14 14 13 13 14 13 12 9 6 9 10 9 12 16 11 9 13 18 17 13 2 0 2 4 7 4 2 3 3 3 2 2 2 3 2 1 5 2 2 4 9 6 8 2 1

GFSGBSN_850_spd_123.txt.gz
Wind_Speed
15 14 13 11 10 10 10 10 10 10 11 11 11 11 11 11 10 9 7 7 8 7 7 7 6 3 4 7 2 2 3 8 12 6 7 11 13 13 12 2 6 11 9 3 7 11 10
16 15 14 12 11 10 10 10 10 10 11 12 12 12 12 12 11 10 8 7 8 9 8 7 5 2 3 10 2 2 6 8 7 9 8 10 11 7 4 2 6 4 9 4 6 7 7
18 16 15 13 12 11 11 10 11 11 11 12 12 13 13 12 11 11 8 8 9 10 7 6 3 3 5 5 5 6 6 4 8 8 8 10 7 10 5 7 3 8 7 7 4 4 7
19 19 17 15 13 12 11 11 11 11 11 12 12 13 14 14 12 11 7 8 10 7 4 4 4 5 3 7 6 5 5 3 4 7 7 8 9 14 9 4 9 12 10 8 7 6 7
17 17 17 17 17 14 12 12 12 12 12 12 12 12 13 14 12 10 7 9 8 2 2 2 3 2 8 5 6 8 7 4 4 6 7 6 10 15 12 12 13 7 9 6 8 5 8
16 16 17 17 18 17 16 14 13 13 14 13 13 13 13 13 11 6 7 8 2 1 2 4 3 6 9 6 7 6 8 6 4 7 8 10 11 12 11 13 11 9 8 3 6 7 9
17 17 17 17 17 18 18 17 16 15 14 15 14 13 13 12 9 3 7 5 3 3 9 11 3 2 7 6 5 6 8 9 7 11 13 16 11 14 17 14 12 6 5 5 11 3 5
18 18 18 18 18 17 17 17 17 17 16 15 15 13 12 11 6 1 4 4 6 6 7 3 3 4 4 4 8 5 10 12 11 13 14 9 14 15 13 4 5 10 9 8 4 4 7
18 18 19 19 19 18 18 17 17 18 17 17 16 13 10 9 4 2 4 2 5 7 9 8 7 6 8 9 3 10 14 11 10 12 10 15 10 4 3 9 12 13 12 6 1 6 10
18 19 20 20 20 19 19 19 18 18 18 18 17 14 10 5 1 4 4 4 8 6 6 12 11 7 7 6 6 4 12 6 4 9 10 12 9 3 11 13 12 13 11 8 3 6 5
18 18 18 19 21 21 21 20 19 19 18 18 18 15 9 6 6 4 2 5 6 4 6 11 10 7 8 9 11 8 8 7 12 8 7 11 8 10 13 13 10 12 6 6 9 12 12
19 20 20 20 20 20 21 22 22 21 19 19 18 17 10 7 9 10 7 7 6 8 3 9 9 11 11 9 7 8 7 8 5 3 10 13 7 11 11 4 6 8 4 12 9 10 11
20 21 22 22 22 22 22 22 22 22 21 20 18 17 14 11 5 7 7 7 7 10 6 10 12 10 12 10 7 11 11 12 9 10 13 13 12 11 11 8 12 12 13 9 11 10 13
21 22 24 24 24 22 22 23 23 22 21 21 19 18 14 12 9 9 8 10 13 10 12 6 4 10 10 7 5 7 8 11 4 8 5 8 13 16 11 15 9 14 16 13 8 8 6
22 24 25 23 22 21 24 23 22 22 20 21 18 11 7 7 14 11 14 13 15 10 7 8 10 11 9 7 7 7 10 8 5 4 9 2 7 7 4 10 14 12 14 19 18 17 14
24 23 22 20 20 20 22 21 22 21 19 19 18 9 13 11 12 15 12 19 16 5 4 9 13 12 10 12 9 7 11 4 3 2 8 5 7 11 9 12 9 18 4 8 9 16 13
23 21 20 18 18 19 21 21 20 20 18 17 10 8 7 8 14 18 13 20 19 8 10 11 12 5 10 2 7 5 2 9 1 7 7 12 6 5 5 12 15 11 12 12 12 11 7
22 20 19 17 18 17 18 20 19 20 17 12 8 7 4 13 15 20 15 23 14 12 13 10 7 9 6 6 8 6 4 2 7 4 8 5 8 11 12 2 10 7 12 21 11 10 6
22 20 19 18 17 15 17 20 18 17 17 16 8 12 3 15 8 13 21 22 9 17 16 15 12 7 5 6 4 5 3 11 3 8 2 6 7 10 15 15 15 10 16 14 13 11 13
22 19 19 17 16 16 16 16 16 13 14 12 7 5 9 16 24 19 14 19 14 23 15 17 12 11 8 7 4 4 5 7 4 10 9 5 14 15 14 17 4 11 17 17 16 12 16
20 18 17 15 14 14 15 14 14 12 11 9 4 5 8 5 15 17 18 17 19 16 17 15 13 12 13 9 11 8 5 7 12 8 7 10 14 14 16 18 15 15 7 8 21 37 16
16 15 13 11 11 13 15 14 13 11 9 4 5 8 13 20 15 15 16 17 18 20 16 19 16 16 14 13 9 3 7 7 7 14 8 11 11 10 13 17 16 14 14 27 33 18 2
13 12 11 10 11 12 13 13 12 10 6 4 4 7 8 14 12 11 13 16 18 16 16 16 16 16 16 14 12 2 4 6 3 5 9 9 10 11 14 12 11 16 14 15 18 18 4
12 11 10 10 11 12 12 12 11 9 6 4 5 4 6 9 11 12 12 17 19 17 14 13 21 11 16 6 2 6 10 4 6 9 11 10 9 9 12 14 16 8 9 2 32 16 13
14 10 10 11 11 11 11 11 11 10 7 3 6 3 4 7 13 14 14 12 11 21 9 14 10 14 11 9 9 8 9 10 13 12 12 11 8 11 11 13 13 10 5 16 20 19 16
13 13 12 11 11 11 11 11 12 10 8 4 6 7 4 7 8 9 14 15 11 11 12 23 9 9 13 9 10 10 8 4 3 5 4 10 7 8 12 9 5 11 8 6 41 10 13
17 14 12 11 10 11 11 11 12 10 8 5 6 7 6 8 14 11 9 10 16 16 9 15 10 14 20 12 10 8 8 2 6 10 7 9 9 13 12 9 8 3 19 9 7 4 20
19 16 13 12 11 10 11 11 12 10 7 5 4 9 7 8 18 12 12 16 14 12 8 6 9 12 10 11 11 4 6 6 6 10 8 7 9 9 6 4 8 6 2 7 5 9 15
19 17 17 15 13 11 12 11 11 9 8 8 8 8 9 13 11 12 16 21 20 16 10 9 9 9 11 8 7 3 6 5 5 8 4 7 4 3 5 3 3 4 8 4 7 9 5